QPF
0.03 0.03 0.09 0.06 0.00 0.00 0.00 0.03 0.08 0.06 0.05 0.01 0.00 0.00 0.00 0.00 0.01 0.00 0.00 0.00 0.00 0.00 0.00 0.00 0.00 0.00 0.00 0.00 0.00 0.00 0.00 0.02 0.10 0.03 0.01 0.02 0.01 0.03 0.01 0.05 0.03 0.00 0.00
0.00 0.02 0.03 0.02 0.00 0.00 0.00 0.00 0.03 0.04 0.05 0.00 0.00 0.00 0.00 0.02 0.01 0.00 0.00 0.05 0.03 0.00 0.00 0.00 0.00 0.00 0.00 0.00 0.00 0.00 0.00 0.02 0.10 0.06 0.05 0.02 0.04 0.04 0.02 0.05 0.06 0.01 0.02
0.00 0.00 0.00 0.03 0.01 0.00 0.00 0.00 0.00 0.00 0.00 0.00 0.00 0.02 0.03 0.01 0.00 0.00 0.00 0.01 0.01 0.01 0.00 0.00 0.02 0.05 0.00 0.01 0.03 0.01 0.01 0.01 0.03 0.10 0.16 0.08 0.02 0.03 0.01 0.01 0.00 0.02 0.01
0.00 0.00 0.00 0.01 0.01 0.00 0.00 0.00 0.00 0.00 0.00 0.02 0.03 0.02 0.01 0.00 0.00 0.02 0.02 0.02 0.03 0.00 0.00 0.00 0.02 0.05 0.05 0.04 0.00 0.03 0.01 0.01 0.02 0.06 0.05 0.02 0.00 0.02 0.00 0.00 0.00 0.01 0.01
0.00 0.00 0.00 0.00 0.00 0.00 0.00 0.01 0.01 0.00 0.01 0.03 0.05 0.04 0.00 0.00 0.00 0.02 0.01 0.00 0.02 0.01 0.00 0.00 0.00 0.01 0.02 0.01 0.00 0.00 0.00 0.02 0.04 0.07 0.01 0.03 0.00 0.05 0.06 0.09 0.10 0.05 0.03
0.00 0.00 0.00 0.00 0.00 0.00 0.01 0.01 0.00 0.00 0.01 0.02 0.01 0.01 0.00 0.03 0.05 0.02 0.01 0.03 0.00 0.00 0.00 0.00 0.01 0.03 0.00 0.00 0.00 0.00 0.00 0.01 0.02 0.02 0.00 0.04 0.07 0.06 0.09 0.07 0.03 0.01 0.02
0.00 0.00 0.00 0.01 0.00 0.00 0.00 0.00 0.00 0.02 0.02 0.01 0.01 0.00 0.00 0.02 0.04 0.01 0.01 0.01 0.00 0.00 0.00 0.04 0.04 0.01 0.00 0.00 0.00 0.00 0.00 0.00 0.01 0.01 0.00 0.11 0.03 0.07 0.02 0.00 0.01 0.01 0.01
0.00 0.00 0.00 0.01 0.01 0.01 0.00 0.00 0.00 0.00 0.01 0.05 0.03 0.01 0.03 0.02 0.02 0.01 0.00 0.00 0.00 0.00 0.00 0.00 0.05 0.01 0.00 0.00 0.00 0.00 0.00 0.01 0.01 0.00 0.00 0.01 0.02 0.06 0.03 0.04 0.01 0.01 0.01
0.00 0.00 0.00 0.00 0.01 0.02 0.01 0.01 0.02 0.02 0.04 0.04 0.01 0.04 0.03 0.01 0.00 0.00 0.00 0.00 0.00 0.00 0.00 0.00 0.01 0.00 0.00 0.00 0.00 0.00 0.00 0.00 0.00 0.00 0.00 0.00 0.04 0.05 0.02 0.04 0.03 0.00 0.00
0.00 0.00 0.00 0.00 0.00 0.00 0.01 0.02 0.01 0.01 0.01 0.03 0.02 0.01 0.00 0.00 0.00 0.00 0.01 0.00 0.00 0.00 0.00 0.00 0.00 0.00 0.00 0.00 0.00 0.00 0.00 0.00 0.00 0.01 0.00 0.00 0.03 0.03 0.01 0.02 0.02 0.01 0.00
0.00 0.00 0.00 0.00 0.00 0.02 0.00 0.02 0.01 0.02 0.05 0.01 0.00 0.01 0.00 0.00 0.00 0.00 0.01 0.00 0.00 0.00 0.00 0.00 0.00 0.00 0.00 0.00 0.00 0.00 0.00 0.00 0.00 0.00 0.00 0.00 0.02 0.01 0.01 0.01 0.01 0.00 0.00
0.00 0.00 0.00 0.00 0.00 0.00 0.00 0.02 0.03 0.00 0.00 0.00 0.00 0.00 0.00 0.00 0.00 0.00 0.00 0.00 0.00 0.00 0.00 0.00 0.00 0.06 0.20 0.05 0.00 0.00 0.00 0.00 0.00 0.00 0.00 0.00 0.01 0.01 0.00 0.00 0.00 0.00 0.00
0.00 0.00 0.00 0.00 0.00 0.00 0.00 0.00 0.00 0.00 0.00 0.00 0.00 0.00 0.00 0.00 0.00 0.00 0.00 0.00 0.00 0.02 0.00 0.00 0.01 0.07 0.28 0.15 0.00 0.00 0.00 0.00 0.00 0.00 0.00 0.00 0.01 0.00 0.00 0.00 0.00 0.00 0.00
0.00 0.00 0.00 0.00 0.00 0.00 0.00 0.00 0.00 0.00 0.00 0.00 0.00 0.00 0.00 0.00 0.00 0.00 0.00 0.00 0.00 0.00 0.00 0.01 0.00 0.00 0.00 0.00 0.00 0.00 0.00 0.00 0.00 0.00 0.00 0.00 0.00 0.00 0.01 0.00 0.00 0.00 0.00
0.00 0.00 0.00 0.00 0.00 0.00 0.00 0.00 0.00 0.00 0.00 0.00 0.00 0.00 0.00 0.00 0.00 0.00 0.00 0.00 0.00 0.00 0.00 0.00 0.00 0.00 0.00 0.00 0.00 0.00 0.00 0.00 0.00 0.00 0.00 0.00 0.00 0.00 0.00 0.01 0.01 0.00 0.00
0.00 0.00 0.00 0.00 0.00 0.00 0.00 0.00 0.00 0.00 0.00 0.00 0.00 0.00 0.00 0.04 0.00 0.01 0.00 0.00 0.00 0.01 0.00 0.00 0.00 0.00 0.00 0.00 0.00 0.00 0.00 0.00 0.00 0.00 0.00 0.00 0.00 0.00 0.00 0.00 0.00 0.00 0.00
0.00 0.00 0.00 0.00 0.00 0.00 0.00 0.00 0.00 0.00 0.00 0.00 0.00 0.00 0.00 0.05 0.01 0.00 0.00 0.00 0.00 0.00 0.00 0.00 0.00 0.00 0.00 0.00 0.00 0.00 0.00 0.00 0.00 0.00 0.00 0.00 0.00 0.00 0.00 0.00 0.00 0.00 0.00
0.00 0.00 0.00 0.00 0.00 0.00 0.00 0.00 0.00 0.00 0.00 0.00 0.00 0.00 0.00 0.07 0.04 0.01 0.00 0.00 0.00 0.00 0.00 0.00 0.00 0.00 0.00 0.00 0.00 0.00 0.00 0.00 0.00 0.00 0.00 0.00 0.00 0.00 0.00 0.00 0.00 0.00 0.00
0.00 0.00 0.00 0.00 0.00 0.00 0.00 0.00 0.00 0.00 0.00 0.00 0.00 0.00 0.00 0.00 0.01 0.11 0.04 0.02 0.00 0.00 0.00 0.00 0.00 0.00 0.00 0.00 0.00 0.00 0.00 0.00 0.00 0.00 0.00 0.00 0.00 0.00 0.00 0.00 0.00 0.00 0.00
0.00 0.00 0.00 0.00 0.00 0.00 0.00 0.00 0.00 0.00 0.00 0.00 0.00 0.00 0.00 0.00 0.00 0.05 0.02 0.00 0.00 0.00 0.04 0.06 0.00 0.00 0.00 0.00 0.00 0.00 0.00 0.00 0.00 0.00 0.00 0.00 0.00 0.00 0.00 0.00 0.00 0.00 0.00
0.00 0.00 0.00 0.00 0.00 0.00 0.00 0.00 0.00 0.00 0.00 0.00 0.00 0.00 0.00 0.00 0.00 0.03 0.02 0.00 0.00 0.00 0.00 0.00 0.00 0.00 0.00 0.00 0.00 0.00 0.00 0.00 0.00 0.00 0.00 0.00 0.00 0.00 0.00 0.00 0.00 0.00 0.00
0.00 0.00 0.00 0.00 0.00 0.00 0.00 0.00 0.00 0.00 0.00 0.00 0.00 0.00 0.00 0.00 0.00 0.00 0.00 0.00 0.04 0.01 0.00 0.00 0.00 0.00 0.00 0.00 0.00 0.00 0.00 0.00 0.00 0.00 0.00 0.00 0.00 0.00 0.00 0.00 0.00 0.00 0.00
0.00 0.00 0.00 0.00 0.00 0.00 0.00 0.00 0.00 0.00 0.00 0.00 0.00 0.00 0.00 0.00 0.00 0.00 0.00 0.01 0.00 0.00 0.00 0.00 0.00 0.00 0.00 0.00 0.00 0.00 0.00 0.00 0.00 0.00 0.00 0.00 0.00 0.00 0.00 0.00 0.00 0.00 0.00
0.00 0.00 0.00 0.00 0.00 0.00 0.00 0.00 0.00 0.00 0.00 0.00 0.00 0.00 0.00 0.00 0.00 0.00 0.00 0.00 0.00 0.01 0.00 0.01 0.00 0.00 0.00 0.00 0.00 0.00 0.00 0.00 0.00 0.00 0.00 0.00 0.00 0.00 0.00 0.00 0.00 0.00 0.00
0.00 0.00 0.00 0.00 0.00 0.00 0.00 0.00 0.00 0.00 0.00 0.00 0.00 0.00 0.00 0.00 0.00 0.00 0.01 0.00 0.00 0.00 0.01 0.02 0.01 0.00 0.00 0.00 0.00 0.00 0.00 0.00 0.00 0.00 0.00 0.00 0.00 0.00 0.00 0.00 0.00 0.00 0.00
0.00 0.00 0.00 0.00 0.00 0.00 0.00 0.00 0.00 0.00 0.00 0.00 0.00 0.00 0.00 0.00 0.00 0.00 0.00 0.00 0.00 0.00 0.01 0.02 0.00 0.00 0.00 0.00 0.00 0.00 0.00 0.00 0.00 0.00 0.00 0.00 0.00 0.00 0.00 0.00 0.00 0.00 0.00
MSLP
1015.22 1015.00 1015.83 1015.82 1015.75 1015.84 1015.92 1015.99 1016.11 1016.31 1016.47 1016.65 1016.86 1017.04 1017.16 1017.18 1017.20 1017.28 1017.44 1017.50 1017.46 1017.47 1017.48 1017.50 1017.52 1017.56 1017.56 1017.64 1017.71 1017.70 1017.76 1017.92 1018.00 1018.02 1018.10 1018.16 1018.27 1018.31 1018.30 1018.28 1017.78 1018.23 1018.79
1015.01 1015.08 1015.79 1015.75 1015.86 1016.06 1016.20 1016.28 1016.38 1016.62 1016.83 1017.02 1017.13 1017.25 1017.29 1017.38 1017.48 1017.58 1017.72 1017.72 1017.66 1017.69 1017.78 1017.80 1017.80 1017.84 1017.87 1017.96 1017.98 1018.03 1018.10 1018.25 1018.37 1018.24 1018.29 1018.38 1018.56 1018.68 1018.60 1018.58 1018.36 1018.92 1019.03
1014.33 1014.92 1015.48 1015.91 1016.04 1016.19 1016.36 1016.55 1016.70 1016.96 1017.12 1017.20 1017.32 1017.42 1017.54 1017.63 1017.72 1017.78 1017.92 1017.91 1017.92 1017.97 1018.04 1018.04 1018.06 1018.12 1018.18 1018.30 1018.37 1018.39 1018.38 1018.42 1018.55 1018.30 1018.22 1018.07 1018.63 1018.93 1018.98 1019.04 1019.23 1019.35 1019.49
1013.40 1014.16 1015.00 1016.15 1016.30 1016.37 1016.45 1016.73 1016.95 1017.10 1017.29 1017.40 1017.53 1017.61 1017.80 1017.90 1017.98 1018.10 1018.11 1018.19 1018.24 1018.26 1018.27 1018.26 1018.34 1018.45 1018.44 1018.49 1018.65 1018.66 1018.59 1018.59 1018.63 1018.41 1018.25 1018.08 1018.33 1019.32 1019.38 1019.48 1019.66 1019.71 1019.84
1012.72 1013.42 1015.41 1016.00 1016.38 1016.56 1016.69 1016.95 1017.12 1017.31 1017.58 1017.67 1017.73 1017.86 1018.02 1018.20 1018.23 1018.21 1018.41 1018.46 1018.59 1018.54 1018.57 1018.60 1018.60 1018.66 1018.69 1018.71 1018.85 1018.93 1018.81 1018.82 1018.69 1018.30 1018.54 1018.50 1018.61 1019.66 1019.81 1019.92 1019.97 1020.09 1020.08
1012.40 1013.60 1015.94 1016.26 1016.46 1016.68 1016.91 1017.13 1017.41 1017.57 1017.79 1017.86 1018.00 1018.12 1018.31 1018.34 1018.51 1018.50 1018.64 1018.80 1018.78 1018.82 1018.81 1018.82 1018.86 1018.81 1018.85 1019.02 1019.06 1019.12 1019.01 1018.91 1018.52 1018.59 1018.56 1019.26 1019.36 1020.17 1020.28 1020.31 1020.25 1020.51 1020.59
1012.16 1014.34 1015.71 1016.54 1016.74 1016.99 1017.20 1017.38 1017.64 1017.89 1017.97 1018.12 1018.24 1018.33 1018.44 1018.56 1018.63 1018.69 1018.74 1018.90 1018.99 1018.95 1019.01 1019.12 1019.08 1019.05 1018.99 1019.14 1019.28 1019.32 1019.17 1019.01 1018.92 1018.71 1019.16 1019.77 1020.16 1020.35 1020.50 1020.59 1020.69 1020.82 1020.92
1012.36 1014.11 1015.80 1016.79 1017.07 1017.26 1017.39 1017.60 1017.92 1018.07 1018.16 1018.39 1018.53 1018.67 1018.82 1018.86 1018.85 1018.92 1019.02 1019.05 1019.11 1019.14 1019.23 1019.25 1019.28 1019.26 1019.36 1019.46 1019.51 1019.47 1019.26 1019.22 1018.72 1018.92 1019.26 1019.66 1020.73 1020.67 1020.76 1020.82 1021.00 1021.13 1021.27
1012.60 1014.02 1015.36 1016.22 1017.16 1017.48 1017.72 1017.81 1018.21 1018.31 1018.43 1018.61 1018.76 1018.89 1019.06 1019.07 1019.13 1019.20 1019.29 1019.29 1019.31 1019.37 1019.43 1019.38 1019.34 1019.41 1019.52 1019.57 1019.64 1019.54 1019.32 1019.03 1018.64 1018.84 1018.88 1020.03 1021.03 1020.92 1021.09 1021.25 1021.34 1021.44 1021.57
1012.66 1014.03 1014.89 1015.88 1016.54 1016.92 1017.65 1018.10 1018.26 1018.53 1018.63 1018.82 1019.03 1019.10 1019.11 1019.20 1019.27 1019.30 1019.35 1019.49 1019.54 1019.54 1019.52 1019.47 1019.36 1019.25 1019.46 1019.60 1019.57 1019.34 1018.96 1018.61 1018.14 1019.22 1019.65 1020.92 1021.32 1021.41 1021.52 1021.56 1021.69 1021.80 1021.84
1013.02 1013.71 1014.15 1014.96 1015.97 1016.73 1017.18 1018.19 1018.49 1018.70 1018.82 1018.94 1019.06 1018.98 1018.87 1018.28 1018.62 1019.10 1019.53 1019.64 1019.72 1019.67 1019.49 1019.30 1019.18 1019.38 1019.65 1019.24 1019.16 1019.19 1019.14 1017.96 1018.29 1018.59 1020.15 1021.46 1021.52 1021.56 1021.69 1021.82 1021.92 1022.08 1022.19
1012.81 1013.26 1013.71 1014.42 1015.80 1016.70 1016.36 1017.90 1017.93 1018.26 1018.06 1017.94 1018.26 1018.41 1018.74 1018.26 1018.54 1018.80 1019.45 1019.65 1019.62 1019.53 1019.32 1018.95 1019.38 1020.42 1019.84 1019.61 1018.61 1019.12 1018.78 1018.34 1018.61 1019.18 1020.87 1021.58 1021.72 1021.77 1021.96 1022.06 1022.18 1022.29 1022.35
1012.61 1013.14 1013.85 1015.03 1016.13 1016.32 1016.36 1017.32 1017.10 1017.36 1017.25 1018.08 1018.18 1018.33 1018.29 1018.52 1018.72 1018.71 1018.89 1018.93 1018.90 1019.88 1018.98 1018.57 1019.03 1019.83 1020.88 1019.32 1018.53 1018.23 1018.19 1018.18 1018.39 1019.62 1021.41 1021.75 1021.86 1022.01 1022.19 1022.26 1022.40 1022.38 1022.41
1012.57 1013.34 1013.87 1014.87 1016.46 1016.18 1016.42 1017.03 1016.71 1016.76 1016.77 1017.46 1018.06 1018.43 1018.55 1018.68 1018.57 1018.83 1018.65 1018.41 1018.71 1019.05 1018.30 1019.26 1018.07 1018.26 1019.00 1018.44 1018.57 1018.69 1018.13 1018.69 1018.35 1019.64 1021.46 1021.84 1022.02 1022.16 1022.27 1022.36 1022.48 1022.46 1022.55
1012.74 1013.56 1014.08 1015.36 1016.30 1016.79 1016.43 1016.11 1015.88 1016.56 1016.69 1017.14 1018.41 1018.50 1018.43 1018.76 1018.76 1018.88 1018.44 1019.37 1018.88 1018.58 1018.47 1018.67 1018.20 1018.30 1018.46 1018.11 1018.97 1019.23 1018.80 1018.99 1019.48 1020.26 1020.95 1021.88 1022.12 1022.28 1022.35 1022.42 1022.56 1022.64 1022.70
1012.84 1013.64 1014.51 1015.50 1016.10 1016.65 1016.79 1016.41 1016.70 1016.83 1016.94 1017.23 1017.68 1018.45 1018.59 1019.25 1018.77 1018.72 1018.80 1018.96 1019.04 1019.91 1018.91 1019.12 1018.96 1018.29 1018.24 1018.36 1018.78 1019.62 1019.14 1019.35 1019.62 1020.39 1020.56 1021.55 1021.94 1022.22 1022.38 1022.37 1022.52 1022.64 1022.72
1012.94 1013.75 1014.76 1015.54 1016.12 1016.70 1017.17 1017.08 1017.44 1017.29 1016.79 1017.49 1017.52 1018.74 1018.62 1019.20 1019.12 1018.89 1019.09 1018.82 1019.16 1018.91 1018.97 1018.94 1018.84 1018.76 1018.48 1018.85 1019.99 1019.19 1019.24 1019.58 1019.73 1019.78 1020.50 1020.94 1021.69 1022.01 1022.08 1022.26 1022.48 1022.67 1022.69
1013.03 1013.89 1014.83 1015.24 1016.02 1016.75 1016.85 1017.47 1016.94 1016.90 1017.12 1017.65 1018.05 1018.37 1018.67 1019.23 1019.21 1019.14 1018.72 1018.58 1018.75 1018.98 1019.33 1018.51 1019.75 1019.10 1018.99 1019.03 1019.86 1019.94 1019.22 1019.50 1019.97 1019.95 1020.08 1020.49 1021.04 1021.32 1022.09 1022.10 1022.31 1022.52 1022.63
1013.16 1014.11 1014.76 1015.20 1015.97 1016.67 1017.08 1017.35 1017.07 1017.13 1017.36 1017.66 1017.82 1018.24 1018.55 1018.80 1018.92 1019.74 1019.27 1019.13 1019.19 1018.78 1019.27 1019.03 1019.28 1019.33 1019.14 1019.02 1019.65 1019.53 1019.40 1019.46 1019.69 1019.77 1020.18 1020.06 1020.55 1020.93 1021.20 1021.92 1022.04 1022.30 1022.34
1012.97 1014.10 1014.83 1015.26 1015.88 1016.67 1017.08 1017.38 1017.00 1017.37 1017.23 1017.58 1017.71 1018.08 1018.42 1018.36 1018.72 1018.98 1018.99 1019.26 1019.35 1018.66 1019.68 1019.90 1019.24 1019.83 1019.41 1019.30 1018.61 1019.07 1019.34 1019.40 1019.44 1019.59 1019.73 1019.61 1020.35 1020.27 1021.07 1021.14 1021.65 1021.79 1022.05
1012.69 1013.81 1014.63 1015.16 1015.72 1016.52 1016.92 1017.13 1016.96 1016.84 1017.09 1017.21 1017.35 1017.73 1018.42 1018.34 1018.70 1018.86 1019.04 1019.25 1019.23 1019.18 1019.57 1019.56 1019.69 1019.62 1019.12 1019.36 1019.59 1019.68 1019.70 1019.74 1019.70 1019.26 1018.98 1018.99 1019.80 1019.73 1020.19 1020.46 1020.69 1021.28 1021.93
1012.25 1013.36 1014.38 1015.01 1015.61 1016.36 1016.65 1016.91 1016.76 1016.63 1016.76 1016.82 1017.02 1017.78 1018.21 1018.45 1018.76 1018.62 1019.14 1019.18 1020.09 1019.60 1019.80 1019.82 1019.69 1019.30 1019.16 1019.54 1019.90 1019.23 1019.54 1019.60 1018.99 1018.96 1019.14 1019.23 1019.46 1019.36 1019.73 1020.42 1020.60 1020.93 1020.92
1011.61 1012.83 1013.90 1014.72 1015.34 1016.10 1016.28 1016.83 1016.96 1016.85 1016.69 1016.96 1016.91 1017.50 1017.92 1018.29 1018.62 1018.48 1019.01 1019.07 1019.24 1019.48 1019.67 1019.99 1019.90 1019.41 1019.56 1019.56 1019.92 1020.11 1020.18 1020.00 1019.22 1019.16 1019.62 1019.28 1019.80 1019.58 1019.64 1020.18 1020.32 1020.73 1020.92
1010.82 1012.26 1013.36 1014.42 1015.00 1015.74 1016.20 1016.32 1016.65 1016.57 1016.46 1016.48 1016.56 1016.71 1017.42 1018.07 1018.34 1018.60 1018.99 1019.19 1019.56 1019.10 1019.50 1019.63 1019.66 1019.48 1019.82 1019.46 1019.84 1019.75 1020.14 1020.18 1020.04 1019.06 1018.94 1019.26 1019.65 1019.60 1019.76 1019.58 1019.56 1020.09 1020.51
1010.08 1011.28 1012.58 1013.84 1014.62 1015.11 1015.80 1015.84 1016.32 1016.50 1016.36 1016.35 1016.30 1016.67 1017.05 1017.89 1018.13 1018.21 1018.99 1019.12 1019.29 1019.36 1019.37 1019.74 1019.75 1019.98 1019.58 1019.74 1019.27 1019.50 1019.78 1019.53 1019.70 1019.37 1018.86 1018.72 1018.95 1019.07 1019.16 1019.59 1019.12 1019.26 1019.87
1009.35 1010.34 1011.56 1012.85 1013.87 1014.62 1015.17 1015.79 1015.91 1016.24 1016.02 1015.97 1016.23 1016.36 1017.06 1017.26 1017.86 1018.06 1018.43 1018.89 1019.08 1018.98 1019.36 1019.64 1019.82 1020.02 1020.01 1019.66 1019.38 1019.32 1019.41 1019.74 1019.39 1018.64 1018.42 1018.56 1018.54 1018.72 1018.74 1018.76 1019.02 1019.10 1019.16
Thickness
5760 5761 5756 5756 5756 5755 5755 5756 5756 5755 5755 5753 5752 5751 5751 5751 5751 5751 5749 5749 5749 5749 5750 5749 5748 5748 5748 5747 5747 5747 5747 5745 5744 5745 5746 5746 5745 5746 5746 5746 5749 5746 5741
5763 5762 5757 5758 5757 5756 5755 5756 5756 5754 5752 5751 5751 5751 5751 5751 5751 5749 5748 5748 5748 5748 5747 5746 5746 5746 5746 5746 5745 5745 5744 5743 5743 5744 5745 5746 5745 5744 5745 5745 5746 5742 5741
5771 5764 5760 5757 5758 5757 5756 5755 5755 5754 5752 5752 5751 5751 5750 5750 5750 5749 5748 5747 5746 5745 5743 5743 5743 5744 5744 5744 5743 5743 5743 5743 5743 5745 5746 5749 5745 5744 5744 5743 5741 5739 5738
5778 5771 5765 5757 5757 5757 5758 5756 5756 5755 5753 5752 5752 5751 5750 5749 5749 5748 5746 5744 5742 5741 5740 5740 5741 5741 5742 5742 5742 5742 5743 5743 5744 5746 5748 5751 5750 5743 5742 5741 5739 5737 5736
5786 5780 5764 5761 5758 5758 5759 5756 5756 5755 5753 5752 5752 5752 5750 5749 5748 5748 5745 5743 5740 5738 5737 5738 5739 5740 5740 5739 5740 5741 5743 5744 5746 5749 5749 5750 5749 5742 5740 5738 5738 5736 5735
5789 5779 5760 5759 5760 5759 5758 5757 5756 5756 5753 5753 5752 5752 5750 5749 5748 5748 5746 5743 5740 5738 5737 5737 5738 5740 5740 5735 5741 5741 5744 5745 5749 5749 5751 5746 5746 5739 5737 5737 5737 5735 5733
5793 5774 5762 5758 5759 5758 5758 5757 5755 5754 5754 5753 5752 5751 5751 5750 5749 5748 5747 5744 5741 5741 5739 5738 5739 5740 5741 5741 5741 5743 5745 5746 5748 5751 5747 5743 5740 5738 5737 5736 5735 5733 5733
5791 5777 5763 5757 5757 5757 5757 5757 5754 5754 5755 5753 5752 5751 5751 5750 5750 5749 5747 5746 5745 5743 5741 5741 5741 5743 5742 5742 5743 5744 5747 5748 5752 5750 5748 5745 5737 5737 5737 5736 5735 5733 5732
5789 5778 5768 5762 5757 5756 5755 5755 5753 5754 5754 5753 5752 5751 5751 5751 5750 5749 5748 5748 5746 5745 5744 5745 5745 5745 5744 5745 5745 5747 5749 5751 5755 5754 5753 5744 5737 5737 5736 5735 5734 5732 5731
5790 5780 5773 5767 5762 5761 5756 5755 5755 5754 5754 5753 5752 5753 5753 5753 5752 5751 5751 5750 5748 5747 5747 5747 5749 5750 5749 5748 5750 5752 5756 5759 5761 5753 5750 5739 5736 5734 5734 5734 5733 5732 5730
5787 5784 5780 5775 5767 5764 5761 5754 5754 5754 5754 5754 5755 5756 5757 5761 5759 5754 5753 5751 5750 5749 5751 5752 5753 5753 5750 5755 5756 5757 5757 5764 5762 5759 5747 5737 5735 5734 5734 5733 5732 5731 5729
5784 5786 5787 5781 5770 5765 5769 5759 5760 5759 5762 5763 5762 5762 5761 5763 5761 5758 5755 5754 5754 5754 5756 5758 5754 5743 5740 5752 5761 5758 5759 5762 5760 5757 5743 5738 5735 5734 5734 5734 5732 5731 5731
5788 5788 5787 5778 5769 5770 5771 5765 5768 5769 5771 5765 5764 5765 5764 5762 5761 5762 5761 5760 5761 5754 5761 5764 5759 5750 5738 5760 5765 5766 5765 5765 5765 5755 5742 5739 5737 5736 5735 5735 5734 5735 5734
5788 5786 5787 5780 5768 5773 5773 5770 5775 5776 5776 5771 5767 5765 5764 5763 5763 5762 5765 5766 5765 5763 5767 5763 5770 5769 5763 5769 5767 5765 5769 5766 5769 5758 5745 5742 5740 5739 5738 5737 5737 5737 5735
5786 5785 5785 5778 5771 5770 5776 5779 5783 5780 5779 5776 5765 5765 5766 5764 5763 5764 5767 5761 5765 5768 5769 5768 5771 5771 5770 5773 5766 5764 5767 5765 5764 5757 5751 5745 5742 5741 5740 5740 5739 5738 5736
5789 5786 5784 5778 5773 5771 5774 5779 5779 5779 5779 5776 5773 5766 5766 5762 5765 5765 5765 5766 5766 5762 5769 5768 5769 5774 5774 5773 5769 5764 5768 5766 5764 5759 5756 5749 5747 5744 5743 5744 5742 5740 5739
5789 5788 5782 5778 5775 5772 5772 5774 5775 5778 5780 5776 5774 5766 5767 5763 5763 5764 5765 5767 5767 5769 5769 5770 5772 5773 5775 5771 5764 5769 5769 5767 5765 5764 5760 5756 5751 5749 5748 5747 5744 5742 5741
5789 5785 5783 5783 5778 5774 5775 5773 5779 5780 5780 5777 5772 5770 5769 5765 5764 5765 5768 5770 5770 5769 5768 5775 5769 5774 5774 5774 5765 5767 5772 5770 5766 5766 5765 5762 5758 5756 5751 5751 5749 5746 5744
5790 5785 5783 5784 5780 5776 5774 5775 5780 5780 5780 5778 5777 5773 5772 5770 5768 5763 5767 5767 5769 5774 5773 5776 5773 5773 5773 5776 5769 5772 5774 5773 5772 5770 5767 5768 5764 5763 5760 5755 5754 5751 5749
5793 5788 5785 5784 5783 5779 5775 5776 5781 5779 5782 5781 5780 5777 5774 5776 5772 5770 5771 5769 5770 5775 5770 5774 5776 5771 5774 5774 5782 5778 5777 5777 5776 5776 5775 5775 5769 5769 5764 5763 5760 5757 5755
5794 5789 5786 5785 5785 5781 5778 5775 5779 5781 5784 5785 5784 5782 5776 5777 5774 5773 5774 5772 5773 5777 5774 5777 5775 5774 5778 5779 5772 5771 5774 5776 5777 5781 5783 5783 5776 5776 5772 5770 5769 5764 5759
5795 5792 5788 5787 5786 5783 5782 5782 5785 5788 5789 5790 5789 5784 5780 5778 5776 5778 5775 5775 5770 5775 5774 5775 5777 5778 5779 5779 5767 5774 5761 5769 5783 5786 5785 5784 5782 5781 5779 5773 5771 5768 5769
5798 5794 5790 5788 5788 5785 5787 5785 5785 5789 5790 5788 5791 5788 5784 5782 5780 5781 5779 5779 5777 5776 5775 5774 5776 5780 5774 5779 5777 5767 5756 5753 5774 5784 5780 5786 5782 5784 5782 5778 5777 5774 5772
5804 5799 5794 5789 5789 5788 5788 5788 5785 5784 5784 5791 5795 5797 5791 5785 5784 5783 5781 5781 5778 5781 5779 5779 5780 5783 5778 5777 5778 5781 5777 5773 5759 5767 5785 5787 5786 5787 5785 5786 5786 5782 5779
5808 5804 5798 5792 5790 5791 5790 5793 5789 5786 5792 5797 5800 5797 5796 5789 5788 5788 5783 5783 5783 5783 5783 5781 5781 5779 5784 5779 5781 5780 5778 5782 5780 5774 5771 5783 5791 5794 5793 5789 5793 5791 5787
5812 5809 5805 5798 5793 5794 5794 5792 5793 5790 5795 5797 5797 5798 5795 5796 5792 5791 5789 5786 5786 5788 5786 5783 5782 5781 5781 5784 5787 5786 5780 5774 5776 5786 5785 5786 5788 5793 5798 5798 5796 5795 5795